Regional Weather Roundup
Issued by NWS

Home | Current Version | Previous Version | Graphics & Text | Print | Product List | Glossary On
Versions: 1 2 3 4 5 6 7 8 9 10 11 12 13 14 15 16 17 18 19 20 21 22 23 24 25 26 27 28 29 30 31 32 33 34 35 36 37 38 39 40 41 42 43 44 45 46 47 48 49 50
000
ASUS45 KABQ 211701
RWRNM
WEATHER ROUNDUP FOR NEW MEXICO
NATIONAL WEATHER SERVICE ALBUQUERQUE NM
1100 AM MDT THU AUG 21 2014

NOTE: "FAIR" MEANS FEW OR NO CLOUDS BELOW 12,000 FEET AGL WITH NO
       SIGNIFICANT WEATHER OR OBSTRUCTIONS TO VISION.

      THIS PRODUCT IS RELEASED AS TWO VERSIONS.  ONE VERSION NEAR
      THE TOP OF THE HOUR CONTAINING PRELIMINARY DATA FROM ALBUQUERQUE
      AND OTHER STATIONS.  A FINAL VERSION WITH ADDITIONAL DATA IS
      ISSUED ABOUT 10 MINUTES AFTER THE HOUR.

NMZ501-503-504-510>518-211800-
NORTHWEST PLATEAU/NORTHCENTRAL MOUNTAINS

CITY           SKY/WX    TMP DP  RH WIND       PRES   REMARKS
FARMINGTON     SUNNY     74  41  30 CALM      30.19R
LOS ALAMOS     SUNNY     72  38  28 NE6       30.29S
SANTA FE       SUNNY     79  37  22 N7        30.22S
TAOS           SUNNY     72  36  26 NW3       30.29S
ANGEL FIRE     FAIR      68  37  32 CALM      30.36S

$$
NMZ402-403-502-505>509-211800-
WESTCENTRAL MOUNTAINS/SOUTHWEST MOUNTAINS

CITY           SKY/WX    TMP DP  RH WIND       PRES   REMARKS
GALLUP         PTSUNNY   74  41  30 N6        30.26S
SILVER CITY    PTSUNNY   77  46  33 S5        30.20S

$$
NMZ407-409-411-412-211800-
SOUTHERN DESERTS

CITY           SKY/WX    TMP DP  RH WIND       PRES   REMARKS
LORDSBURG      FAIR      77  54  44 W8        30.14S
DEMING         MOSUNNY   80  53  39 VRB5      30.12S
LAS CRUCES     SUNNY     83  49  31 SW9       30.14R
HOLLOMAN AFB   MOSUNNY   86  50  28 S7        30.09R
ALAMOGORDO     MOSUNNY   84  50  30 S8        30.11R
T OR C         SUNNY     80  50  34 SE8       30.14R

$$
NMZ519>523-211800-
CENTRAL VALLEYS/CENTRAL HIGHLANDS

CITY           SKY/WX    TMP DP  RH WIND       PRES   REMARKS
ALBUQUERQUE    MOSUNNY   79  42  26 N3        30.18S
DOUBLE EAGLE   MOSUNNY   79  39  24 N3        30.21S
CLINES CORNERS SUNNY     78  40  25 W14G20    30.26R
BELEN          FAIR      78  43  28 N7        30.17S
SOCORRO        FAIR      82  42  24 N3        30.15S

$$
NMZ524>526-539-540-211800-
SOUTHCENTRAL MOUNTAINS

CITY           SKY/WX    TMP DP  RH WIND       PRES   REMARKS
RUIDOSO        NOT AVBL

$$
NMZ527>531-211800-
NORTHEAST HIGHLANDS/NORTHEAST PLAINS

CITY           SKY/WX    TMP DP  RH WIND       PRES   REMARKS
LAS VEGAS        N/A     77  39  25 CALM      30.25R
RATON          SUNNY     79  47  32 E6        30.18S
CLAYTON        MOSUNNY   85  52  32 N8        30.09R

$$
NMZ532>537-211800-
EASTCENTRAL PLAINS

CITY           SKY/WX    TMP DP  RH WIND       PRES   REMARKS
TUCUMCARI      MOSUNNY   88  55  32 VRB5      30.03S
CANNON AFB     NOT AVBL
CLOVIS AIRPORT   N/A     84  61  45 S9G16     30.09S

$$
NMZ028-029-538-211800-
SOUTHEAST PLAINS

CITY           SKY/WX    TMP DP  RH WIND       PRES   REMARKS
ROSWELL        SUNNY     84  59  42 E3        30.04R
ARTESIA        SUNNY     90  48  24 SW9       30.04S
CARLSBAD       SUNNY     89  52  28 SE6       30.02S
HOBBS          SUNNY     88  55  33 S12       30.07S


$$


USA.gov is the U.S. government's official web portal to all federal, state and local government web resources and services.